TimeEST,TemperatureF,Dew PointF,Humidity,Sea Level PressureIn,VisibilityMPH,Wind Direction,Wind SpeedMPH,Gust SpeedMPH,PrecipitationIn,Events,Conditions,WindDirDegrees,DateUTC
12:02 AM,36.5,27.3,69,29.82,10.0,SSW,6.9,-,N/A,,Clear,210,2014-01-27 05:02:00
12:22 AM,36.9,27.3,68,29.82,10.0,SSW,9.2,-,N/A,,Clear,210,2014-01-27 05:22:00
12:42 AM,37.8,27.3,66,29.80,10.0,SSW,9.2,-,N/A,,Clear,200,2014-01-27 05:42:00
1:02 AM,38.1,27.1,65,29.79,10.0,SSW,10.4,-,N/A,,Clear,200,2014-01-27 06:02:00
1:22 AM,38.3,27.0,64,29.77,10.0,SSW,10.4,-,N/A,,Clear,210,2014-01-27 06:22:00
1:42 AM,38.7,26.6,62,29.77,10.0,SSW,10.4,-,N/A,,Clear,210,2014-01-27 06:42:00
2:02 AM,39.4,26.4,60,29.77,10.0,SW,10.4,-,N/A,,Clear,220,2014-01-27 07:02:00
2:22 AM,40.3,26.6,58,29.76,10.0,SW,10.4,-,N/A,,Clear,220,2014-01-27 07:22:00
2:42 AM,41.2,27.1,57,29.75,10.0,SW,13.8,-,N/A,,Clear,220,2014-01-27 07:42:00
3:03 AM,42.1,27.5,56,29.75,10.0,SW,16.1,19.6,N/A,,Clear,230,2014-01-27 08:03:00
3:23 AM,42.8,28.0,56,29.75,10.0,SW,12.7,-,N/A,,Clear,230,2014-01-27 08:23:00
3:43 AM,43.2,28.2,56,29.75,10.0,SW,10.4,16.1,N/A,,Clear,230,2014-01-27 08:43:00
4:03 AM,42.8,28.4,57,29.74,10.0,SW,11.5,18.4,N/A,,Clear,230,2014-01-27 09:03:00
4:23 AM,43.0,28.6,57,29.74,10.0,SW,12.7,-,N/A,,Clear,230,2014-01-27 09:23:00
4:43 AM,42.6,28.8,58,29.74,10.0,SW,12.7,-,N/A,,Clear,230,2014-01-27 09:43:00
5:03 AM,42.1,29.1,60,29.73,10.0,SW,10.4,16.1,N/A,,Clear,220,2014-01-27 10:03:00
5:22 AM,42.3,29.1,60,29.73,10.0,SSW,9.2,-,N/A,,Clear,210,2014-01-27 10:22:00
5:45 AM,41.0,28.4,61,29.72,10.0,SSW,10.4,23.0,N/A,,Mostly Cloudy,210,2014-01-27 10:45:00
6:50 AM,41.0,30.2,65,29.73,10.0,SSW,11.5,-,N/A,,Scattered Clouds,210,2014-01-27 11:50:00
7:50 AM,39.2,30.2,70,29.72,10.0,SSW,10.4,-,N/A,,Overcast,210,2014-01-27 12:50:00
8:50 AM,41.0,30.2,65,29.72,10.0,SSW,10.4,-,N/A,,Overcast,210,2014-01-27 13:50:00
9:50 AM,44.6,30.2,57,29.75,10.0,SW,8.1,-,N/A,,Mostly Cloudy,230,2014-01-27 14:50:00
10:50 AM,44.6,32.0,61,29.76,10.0,SW,12.7,18.4,N/A,,Overcast,230,2014-01-27 15:50:00
11:50 AM,46.4,32.0,57,29.75,10.0,SW,8.1,-,N/A,,Overcast,220,2014-01-27 16:50:00
12:50 PM,50.0,32.0,50,29.78,10.0,NNW,18.4,24.2,N/A,,Mostly Cloudy,340,2014-01-27 17:50:00
1:50 PM,42.8,24.8,49,29.84,10.0,NNW,18.4,26.5,N/A,,Scattered Clouds,340,2014-01-27 18:50:00
2:50 PM,41.0,21.2,45,29.87,10.0,North,17.3,25.3,N/A,,Partly Cloudy,350,2014-01-27 19:50:00
3:53 PM,37.4,17.6,45,29.92,10.0,North,19.6,28.8,N/A,,Scattered Clouds,350,2014-01-27 20:53:00
4:50 PM,35.6,12.2,38,29.97,10.0,NNW,17.3,26.5,N/A,,Mostly Cloudy,340,2014-01-27 21:50:00
5:50 PM,30.2,8.6,40,30.03,10.0,NNW,15.0,25.3,N/A,,Mostly Cloudy,330,2014-01-27 22:50:00
6:50 PM,30.2,8.6,40,30.05,10.0,NNW,15.0,19.6,N/A,,Mostly Cloudy,330,2014-01-27 23:50:00
7:50 PM,30.2,6.8,37,30.06,10.0,NNW,17.3,25.3,N/A,,Scattered Clouds,330,2014-01-28 00:50:00
7:53 PM,30.2,5.0,34,30.09,10.0,NNW,17.3,26.5,N/A,,Scattered Clouds,330,2014-01-28 00:53:00
8:50 PM,28.4,5.0,37,30.11,10.0,NNW,17.3,24.2,N/A,,Mostly Cloudy,340,2014-01-28 01:50:00
9:45 PM,28.4,3.9,35,30.14,10.0,NNW,18.4,28.8,N/A,,Mostly Cloudy,340,2014-01-28 02:45:00
10:05 PM,28.2,3.0,34,30.16,10.0,North,16.1,24.2,N/A,,Overcast,350,2014-01-28 03:05:00
10:25 PM,27.7,4.5,37,30.16,10.0,North,12.7,20.7,N/A,,Mostly Cloudy,360,2014-01-28 03:25:00
10:45 PM,27.1,3.2,36,30.17,10.0,NNW,21.9,29.9,N/A,,Mostly Cloudy,340,2014-01-28 03:45:00
11:05 PM,26.4,1.8,35,30.18,10.0,North,16.1,31.1,N/A,,Mostly Cloudy,350,2014-01-28 04:05:00
11:25 PM,25.7,0.9,34,30.19,10.0,NNW,15.0,25.3,N/A,,Mostly Cloudy,340,2014-01-28 04:25:00
11:45 PM,24.8,0.9,36,30.20,10.0,North,21.9,28.8,N/A,,Scattered Clouds,350,2014-01-28 04:45:00